Location: Newark
(28.1667°N, 17.3333°W)
Time: 01:58:23
(UTC+00:00)

Envisat - Visible Passes

Search period start: 23 April 2019 00:00
Search period end: 03 May 2019 00:00
Orbit: 764 x 766 km, 98.2° (Epoch: 22 April)

Date Brightness Start Highest point End Pass type
(mag) Time Alt. Az. Time Alt. Az. Time Alt. Az.
23 Apr 4.6 20:27:40 10° SSW 20:32:17 36° W 20:36:55 10° NNW visible
25 Apr 5.6 20:54:26 10° SW 20:57:55 19° W 21:01:25 10° NW visible
26 Apr 4.1 20:16:11 10° S 20:21:02 47° W 20:25:55 10° NNW visible
28 Apr 5.3 20:42:34 10° SSW 20:46:38 24° W 20:50:44 10° NW visible
29 Apr 3.6 20:04:48 10° S 20:09:48 63° W 20:14:50 10° NNW visible
30 Apr 5.9 21:10:15 10° WSW 21:12:19 12° W 21:14:24 10° WNW visible
01 May 4.8 20:30:53 10° SSW 20:35:22 32° W 20:39:53 10° NW visible
